| time (UTC) | temp F | wind direction | speed MPH | gust MPH | rain 1hr in | rain 24hr in | rain mn in | humidity % | barometer mb |
| 20260510182517 | 68 | 270 | 1.0 | 5.0 | 0.00 | 0.00 | 0.00 | 43 | 1018.4 |
| 20260510181557 | 69 | 23 | 1.0 | 3.0 | 0.00 | 0.00 | 0.00 | 42 | 1018.4 |
| 20260510180517 | 68 | 23 | 1.0 | 6.0 | 0.00 | 0.00 | 0.00 | 41 | 1018.3 |
| 20260510175516 | 68 | 0.0 | 2.0 | 0.00 | 0.00 | 0.00 | 44 | 1018.4 | |
| 20260510174517 | 69 | 45 | 2.0 | 5.0 | 0.00 | 0.00 | 0.00 | 40 | 1018.4 |
| 20260510173537 | 69 | 0.0 | 4.0 | 0.00 | 0.00 | 0.00 | 37 | 1018.3 | |
| 20260510172538 | 68 | 225 | 1.0 | 6.0 | 0.00 | 0.00 | 0.00 | 37 | 1018.3 |
| 20260510171537 | 68 | 248 | 1.0 | 5.0 | 0.00 | 0.00 | 0.00 | 39 | 1018.4 |
| 20260510170537 | 68 | 270 | 1.0 | 5.0 | 0.00 | 0.00 | 0.00 | 39 | 1018.3 |
| 20260510165537 | 68 | 293 | 1.0 | 6.0 | 0.00 | 0.00 | 0.00 | 40 | 1018.2 |
| 20260510164557 | 67 | 0.0 | 3.0 | 0.00 | 0.00 | 0.00 | 44 | 1018.4 | |
| 20260510163517 | 66 | 225 | 1.0 | 6.0 | 0.00 | 0.00 | 0.00 | 43 | 1018.3 |
| 20260510162517 | 66 | 270 | 2.0 | 8.0 | 0.00 | 0.00 | 0.00 | 42 | 1018.3 |
| 20260510161517 | 67 | 0.0 | 2.0 | 0.00 | 0.00 | 0.00 | 40 | 1017.8 | |
| 20260510160517 | 67 | 135 | 1.0 | 6.0 | 0.00 | 0.00 | 0.00 | 42 | 1017.7 |
| 20260510155517 | 66 | 68 | 1.0 | 4.0 | 0.00 | 0.00 | 0.00 | 44 | 1017.6 |
| 20260510154537 | 66 | 225 | 1.0 | 5.0 | 0.00 | 0.00 | 0.00 | 43 | 1017.7 |
| 20260510152516 | 65 | 0.0 | 4.0 | 0.00 | 0.00 | 0.00 | 43 | 1017.9 | |
| 20260510151518 | 65 | 0.0 | 4.0 | 0.00 | 0.00 | 0.00 | 48 | 1017.8 | |
| 20260510150517 | 66 | 0.0 | 4.0 | 0.00 | 0.00 | 0.00 | 48 | 1017.7 | |
| 20260510145517 | 65 | 0.0 | 1.0 | 0.00 | 0.00 | 0.00 | 47 | 1017.5 | |
| 20260510144517 | 65 | 0.0 | 3.0 | 0.00 | 0.00 | 0.00 | 48 | 1017.4 | |
| 20260510143517 | 65 | 0.0 | 1.0 | 0.00 | 0.00 | 0.00 | 53 | 1017.4 | |
| 20260510142537 | 64 | 135 | 1.0 | 4.0 | 0.00 | 0.00 | 0.00 | 47 | 1017.3 |
| 20260510141537 | 63 | 23 | 1.0 | 5.0 | 0.00 | 0.00 | 0.00 | 50 | 1017.3 |
| 20260510140517 | 63 | 0.0 | 2.0 | 0.00 | 0.00 | 0.00 | 48 | 1017.2 | |
| 20260510135558 | 61 | 0.0 | 2.0 | 0.00 | 0.00 | 0.00 | 51 | 1016.9 | |
| 20260510134517 | 61 | 0.0 | 3.0 | 0.00 | 0.00 | 0.00 | 54 | 1016.8 | |
| 20260510133517 | 60 | 0.0 | 0.0 | 0.00 | 0.00 | 0.00 | 62 | 1016.8 | |
| 20260510132517 | 58 | 0.0 | 2.0 | 0.00 | 0.00 | 0.00 | 65 | 1016.7 | |
| 20260510131517 | 57 | 0.0 | 2.0 | 0.00 | 0.00 | 0.00 | 64 | 1016.6 | |
| 20260510130517 | 56 | 0.0 | 4.0 | 0.00 | 0.00 | 0.00 | 65 | 1016.5 | |
| 20260510125517 | 56 | 0.0 | 1.0 | 0.00 | 0.00 | 0.00 | 68 | 1016.5 | |
| 20260510124517 | 55 | 0.0 | 0.0 | 0.00 | 0.00 | 0.00 | 71 | 1016.4 | |
| 20260510123517 | 55 | 0.0 | 2.0 | 0.00 | 0.00 | 0.00 | 73 | 1016.1 | |
| 20260510122517 | 54 | 0.0 | 1.0 | 0.00 | 0.00 | 0.00 | 75 | 1015.7 | |
| 20260510121517 | 54 | 0.0 | 0.0 | 0.00 | 0.00 | 0.00 | 76 | 1015.5 | |
| 20260510120516 | 53 | 0.0 | 0.0 | 0.00 | 0.00 | 0.00 | 76 | 1015.3 | |
| 20260510115517 | 53 | 0.0 | 0.0 | 0.00 | 0.00 | 0.00 | 77 | 1015.1 | |
| 20260510114538 | 54 | 0.0 | 0.0 | 0.00 | 0.00 | 0.00 | 75 | 1014.8 | |
| 20260510113537 | 54 | 0.0 | 0.0 | 0.00 | 0.00 | 0.00 | 75 | 1014.6 | |
| 20260510112537 | 54 | 0.0 | 0.0 | 0.00 | 0.00 | 0.00 | 74 | 1014.6 | |
| 20260510111517 | 54 | 0.0 | 0.0 | 0.00 | 0.00 | 0.00 | 72 | 1014.4 | |
| 20260510110517 | 54 | 0.0 | 0.0 | 0.00 | 0.00 | 0.00 | 72 | 1013.9 | |
| 20260510105516 | 54 | 0.0 | 0.0 | 0.00 | 0.00 | 0.00 | 73 | 1013.7 | |
| 20260510104517 | 54 | 0.0 | 0.0 | 0.00 | 0.00 | 0.00 | 74 | 1013.6 | |
| 20260510103517 | 54 | 0.0 | 0.0 | 0.00 | 0.00 | 0.00 | 73 | 1013.5 | |
| 20260510102517 | 54 | 0.0 | 0.0 | 0.00 | 0.00 | 0.00 | 72 | 1013.4 | |
| 20260510101516 | 55 | 0.0 | 0.0 | 0.00 | 0.00 | 0.00 | 72 | 1013.2 | |
| 20260510100517 | 55 | 0.0 | 0.0 | 0.00 | 0.00 | 0.00 | 73 | 1013.1 | |
| 20260510095517 | 55 | 0.0 | 1.0 | 0.00 | 0.00 | 0.00 | 71 | 1012.9 | |
| 20260510094517 | 56 | 0.0 | 2.0 | 0.00 | 0.00 | 0.00 | 71 | 1012.8 | |
| 20260510093517 | 56 | 0.0 | 2.0 | 0.00 | 0.00 | 0.00 | 68 | 1013.3 | |
| 20260510092517 | 57 | 0.0 | 1.0 | 0.00 | 0.00 | 0.00 | 69 | 1013.2 | |
| 20260510091517 | 57 | 45 | 1.0 | 4.0 | 0.00 | 0.00 | 0.00 | 71 | 1013.4 |
| 20260510090517 | 57 | 248 | 1.0 | 6.0 | 0.00 | 0.00 | 0.00 | 69 | 1013.1 |
| 20260510085517 | 57 | 248 | 1.0 | 3.0 | 0.00 | 0.00 | 0.00 | 68 | 1013.2 |
| 20260510084516 | 58 | 0.0 | 0.0 | 0.00 | 0.01 | 0.00 | 72 | 1013.1 | |
| 20260510083517 | 58 | 0.0 | 0.0 | 0.00 | 0.02 | 0.00 | 75 | 1013.1 | |
| 20260510082537 | 58 | 0.0 | 0.0 | 0.00 | 0.03 | 0.00 | 77 | 1012.9 | |
| 20260510081537 | 58 | 0.0 | 2.0 | 0.00 | 0.05 | 0.00 | 81 | 1012.6 | |
| 20260510080516 | 58 | 0.0 | 0.0 | 0.00 | 0.05 | 0.00 | 85 | 1012.5 | |
| 20260510075517 | 58 | 0.0 | 0.0 | 0.00 | 0.06 | 0.00 | 85 | 1012.3 | |
| 20260510074517 | 58 | 0.0 | 0.0 | 0.00 | 0.06 | 0.00 | 85 | 1012.1 | |
| 20260510073517 | 58 | 0.0 | 0.0 | 0.00 | 0.08 | 0.00 | 86 | 1011.8 | |
| 20260510072517 | 58 | 0.0 | 0.0 | 0.00 | 0.08 | 0.00 | 88 | 1011.7 | |
| 20260510071517 | 58 | 0.0 | 0.0 | 0.00 | 0.09 | 0.00 | 87 | 1011.5 | |
| 20260510070517 | 59 | 0.0 | 1.0 | 0.00 | 0.10 | 0.00 | 86 | 1011.3 | |
| 20260510065557 | 59 | 0.0 | 0.0 | 0.00 | 0.10 | 0.00 | 83 | 1011.2 | |
| 20260510064517 | 60 | 0.0 | 0.0 | 0.00 | 0.10 | 0.00 | 82 | 1011.1 | |
| 20260510063517 | 61 | 0.0 | 0.0 | 0.00 | 0.10 | 0.00 | 81 | 1011.2 | |
| 20260510062537 | 61 | 0.0 | 0.0 | 0.00 | 0.10 | 0.00 | 81 | 1011.3 | |
| 20260510061518 | 61 | 0.0 | 0.0 | 0.00 | 0.10 | 0.00 | 81 | 1011.1 | |
| 20260510060537 | 61 | 0.0 | 0.0 | 0.00 | 0.10 | 0.00 | 81 | 1011.2 | |
| 20260510055517 | 61 | 0.0 | 0.0 | 0.00 | 0.11 | 0.00 | 81 | 1011.2 | |
| 20260510054517 | 61 | 0.0 | 0.0 | 0.00 | 0.13 | 0.00 | 82 | 1011.3 | |
| 20260510053516 | 61 | 0.0 | 0.0 | 0.00 | 0.15 | 0.00 | 82 | 1011.4 | |
| 20260510052517 | 61 | 0.0 | 0.0 | 0.00 | 0.17 | 0.00 | 82 | 1011.4 | |
| 20260510051538 | 61 | 0.0 | 0.0 | 0.00 | 0.20 | 0.00 | 83 | 1011.2 | |
| 20260510050517 | 61 | 0.0 | 0.0 | 0.00 | 0.22 | 0.00 | 83 | 1011.5 | |
| 20260510045517 | 61 | 0.0 | 0.0 | 0.00 | 0.23 | 0.00 | 81 | 1011.4 | |
| 20260510044517 | 62 | 0.0 | 0.0 | 0.00 | 0.25 | 0.00 | 79 | 1011.3 | |
| 20260510043537 | 62 | 0.0 | 4.0 | 0.00 | 0.28 | 0.00 | 78 | 1010.8 | |
| 20260510042517 | 62 | 0.0 | 4.0 | 0.00 | 0.31 | 0.00 | 78 | 1010.8 | |
| 20260510041517 | 62 | 0.0 | 0.0 | 0.00 | 0.33 | 0.00 | 77 | 1010.7 | |
| 20260510040518 | 62 | 0.0 | 3.0 | 0.00 | 0.35 | 0.00 | 77 | 1010.8 | |
| 20260510035516 | 62 | 0.0 | 4.0 | 0.00 | 0.37 | 0.36 | 78 | 1010.7 | |
| 20260510034517 | 62 | 225 | 1.0 | 3.0 | 0.00 | 0.37 | 0.36 | 77 | 1010.7 |
| 20260510033537 | 62 | 0.0 | 3.0 | 0.00 | 0.39 | 0.36 | 77 | 1010.7 | |
| 20260510032517 | 62 | 0.0 | 0.0 | 0.00 | 0.43 | 0.36 | 77 | 1010.7 | |
| 20260510031517 | 63 | 0.0 | 1.0 | 0.00 | 0.47 | 0.36 | 77 | 1010.7 | |
| 20260510030517 | 63 | 0.0 | 3.0 | 0.00 | 0.49 | 0.36 | 77 | 1010.8 | |
| 20260510025517 | 63 | 0.0 | 1.0 | 0.00 | 0.49 | 0.36 | 77 | 1010.6 | |
| 20260510024517 | 63 | 0.0 | 1.0 | 0.00 | 0.49 | 0.36 | 77 | 1010.5 | |
| 20260510023517 | 63 | 0.0 | 0.0 | 0.00 | 0.49 | 0.36 | 77 | 1010.4 | |
| 20260510022517 | 63 | 0.0 | 0.0 | 0.00 | 0.50 | 0.36 | 76 | 1010.3 | |
| 20260510021516 | 63 | 0.0 | 0.0 | 0.00 | 0.51 | 0.36 | 76 | 1010.2 | |
| 20260510020516 | 64 | 0.0 | 2.0 | 0.00 | 0.51 | 0.36 | 76 | 1010.1 | |
| 20260510015537 | 64 | 0.0 | 0.0 | 0.00 | 0.54 | 0.36 | 76 | 1010.0 | |
| 20260510014516 | 64 | 0.0 | 0.0 | 0.00 | 0.56 | 0.36 | 76 | 1009.8 | |
| 20260510013537 | 64 | 0.0 | 0.0 | 0.00 | 0.59 | 0.36 | 75 | 1009.6 | |
| 20260510012517 | 65 | 0.0 | 0.0 | 0.00 | 0.62 | 0.36 | 75 | 1009.4 | |
| 20260510011517 | 65 | 0.0 | 0.0 | 0.00 | 0.63 | 0.36 | 74 | 1009.3 | |
| 20260510010537 | 66 | 0.0 | 0.0 | 0.00 | 0.63 | 0.36 | 73 | 1009.2 | |
| 20260510005536 | 66 | 0.0 | 0.0 | 0.00 | 0.63 | 0.36 | 72 | 1009.2 | |
| 20260510004517 | 67 | 0.0 | 0.0 | 0.00 | 0.64 | 0.36 | 70 | 1009.1 | |
| 20260510003517 | 68 | 0.0 | 0.0 | 0.00 | 0.65 | 0.36 | 68 | 1008.9 | |
| 20260510002517 | 68 | 0.0 | 0.0 | 0.00 | 0.65 | 0.36 | 67 | 1008.8 | |
| 20260510001517 | 69 | 0.0 | 3.0 | 0.00 | 0.65 | 0.36 | 65 | 1008.7 | |
| 20260510000517 | 69 | 293 | 1.0 | 7.0 | 0.00 | 0.65 | 0.36 | 64 | 1008.7 |
| 20260509235537 | 70 | 248 | 1.0 | 7.0 | 0.00 | 0.65 | 0.36 | 64 | 1008.7 |
| 20260509234517 | 70 | 293 | 1.0 | 5.0 | 0.00 | 0.66 | 0.36 | 63 | 1008.7 |
| 20260509233517 | 70 | 248 | 1.0 | 7.0 | 0.00 | 0.67 | 0.36 | 62 | 1008.6 |
| 20260509232516 | 70 | 293 | 1.0 | 7.0 | 0.00 | 0.68 | 0.36 | 60 | 1008.5 |
| 20260509231537 | 71 | 248 | 1.0 | 4.0 | 0.00 | 0.68 | 0.36 | 59 | 1008.4 |
| 20260509230517 | 71 | 248 | 3.0 | 10.0 | 0.00 | 0.68 | 0.36 | 58 | 1008.4 |
| 20260509225517 | 73 | 0.0 | 4.0 | 0.00 | 0.69 | 0.36 | 58 | 1008.4 | |
| 20260509224517 | 73 | 293 | 4.0 | 12.0 | 0.00 | 0.70 | 0.36 | 54 | 1008.4 |
| 20260509223517 | 73 | 293 | 2.0 | 7.0 | 0.00 | 0.70 | 0.36 | 54 | 1008.3 |
| 20260509222537 | 73 | 270 | 3.0 | 10.0 | 0.00 | 0.70 | 0.36 | 53 | 1008.2 |
| 20260509221517 | 74 | 225 | 3.0 | 15.0 | 0.00 | 0.70 | 0.36 | 55 | 1008.2 |
| 20260509220517 | 74 | 315 | 4.0 | 10.0 | 0.00 | 0.71 | 0.36 | 52 | 1008.2 |
| 20260509215517 | 73 | 270 | 5.0 | 15.0 | 0.00 | 0.71 | 0.36 | 51 | 1008.2 |
| 20260509214517 | 74 | 270 | 3.0 | 8.0 | 0.00 | 0.71 | 0.36 | 51 | 1008.1 |
| 20260509213516 | 74 | 225 | 1.0 | 7.0 | 0.00 | 0.72 | 0.36 | 52 | 1008.0 |
| 20260509212537 | 74 | 248 | 1.0 | 10.0 | 0.00 | 0.72 | 0.36 | 52 | 1008.1 |
| 20260509211517 | 74 | 0.0 | 8.0 | 0.00 | 0.72 | 0.36 | 52 | 1008.0 | |
| 20260509210517 | 74 | 203 | 1.0 | 10.0 | 0.00 | 0.72 | 0.36 | 53 | 1007.9 |
| 20260509205517 | 74 | 203 | 1.0 | 7.0 | 0.00 | 0.72 | 0.36 | 52 | 1007.9 |
| 20260509204517 | 74 | 0.0 | 2.0 | 0.00 | 0.72 | 0.36 | 52 | 1007.9 | |
| 20260509203517 | 74 | 293 | 1.0 | 11.0 | 0.00 | 0.72 | 0.36 | 51 | 1008.0 |
| 20260509202517 | 73 | 225 | 2.0 | 17.0 | 0.00 | 0.72 | 0.36 | 52 | 1008.1 |
| 20260509201517 | 73 | 0.0 | 4.0 | 0.00 | 0.72 | 0.36 | 52 | 1008.2 | |
| 20260509200517 | 74 | 293 | 1.0 | 9.0 | 0.00 | 0.72 | 0.36 | 53 | 1008.3 |
| 20260509195517 | 74 | 0.0 | 4.0 | 0.00 | 0.72 | 0.36 | 56 | 1008.4 | |
| 20260509194516 | 73 | 0.0 | 6.0 | 0.00 | 0.72 | 0.36 | 58 | 1008.4 | |
| 20260509193516 | 73 | 0.0 | 5.0 | 0.00 | 0.72 | 0.36 | 60 | 1008.4 | |
| 20260509192517 | 72 | 203 | 1.0 | 11.0 | 0.00 | 0.72 | 0.36 | 57 | 1008.6 |
| 20260509191517 | 72 | 0.0 | 1.0 | 0.00 | 0.72 | 0.36 | 60 | 1008.6 | |
| 20260509190517 | 71 | 0.0 | 6.0 | 0.00 | 0.72 | 0.36 | 62 | 1008.5 | |
| 20260509185517 | 71 | 225 | 1.0 | 11.0 | 0.00 | 0.72 | 0.36 | 62 | 1008.7 |
| 20260509184517 | 71 | 225 | 1.0 | 7.0 | 0.00 | 0.72 | 0.36 | 66 | 1008.7 |
| 20260509183537 | 70 | 293 | 1.0 | 9.0 | 0.00 | 0.72 | 0.36 | 66 | 1008.7 |